When you browse on this site, cookies collect data to enhance your experience and personalize the content and advertising you see.
Visit our Privacy Policy to learn more. By continuing to use the site, you agree to this use of cookies and data.
  • In Deutschland
  • Länderverzeichnis
  • Für 7 Tage
  • Wassertemperatur
  • Satellitenkarten
  • Wetterkarte
  • Widgets
  • user-avatar
    Anmelden

    Stündliche Wetter Wenzhou

    Heute, 16 Dezember, Sonntag

    Zeit Temperatur Niederschläge Wind Luftdruck Luftfeuchtigkeit
    00:00 +13°C° 0.3 mm 1 m/S 767 mmHg 93%
    01:00 +13°C° 0.3 mm 2 m/S 767 mmHg 93%
    02:00 +13°C° 0 mm 2 m/S 766 mmHg 93%
    03:00 +13°C° 0.1 mm 2 m/S 766 mmHg 93%
    04:00 +13°C° 0.1 mm 2 m/S 766 mmHg 93%
    05:00 +13°C° 0.1 mm 2 m/S 766 mmHg 93%
    06:00 +13°C° 0 mm 2 m/S 766 mmHg 92%
    07:00 +13°C° 0 mm 2 m/S 766 mmHg 91%
    08:00 +12°C° 0 mm 3 m/S 767 mmHg 90%
    09:00 +13°C° 0 mm 3 m/S 767 mmHg 85%
    10:00 +14°C° 0 mm 3 m/S 767 mmHg 80%
    11:00 +16°C° 0 mm 3 m/S 767 mmHg 75%
    12:00 +16°C° 0 mm 3 m/S 766 mmHg 72%
    13:00 +17°C° 0 mm 3 m/S 766 mmHg 69%
    14:00 +17°C° 0 mm 3 m/S 765 mmHg 65%
    15:00 +16°C° 0 mm 3 m/S 766 mmHg 67%
    16:00 +14°C° 0 mm 3 m/S 766 mmHg 69%
    17:00 +13°C° 0 mm 3 m/S 766 mmHg 71%
    18:00 +12°C° 0 mm 3 m/S 766 mmHg 73%
    19:00 +11°C° 0 mm 3 m/S 766 mmHg 75%
    20:00 +10°C° 0 mm 2 m/S 767 mmHg 77%
    21:00 +9°C° 0 mm 2 m/S 767 mmHg 77%
    22:00 +9°C° 0 mm 2 m/S 767 mmHg 77%
    23:00 +8°C° 0 mm 2 m/S 767 mmHg 77%

    Morgen, 17 Dezember, Montag

    Zeit Temperatur Niederschläge Wind Luftdruck Luftfeuchtigkeit
    00:00 +8°C° 0 mm 2 m/S 767 mmHg 77%
    01:00 +8°C° 0 mm 2 m/S 768 mmHg 77%
    02:00 +7°C° 0 mm 2 m/S 768 mmHg 77%
    03:00 +7°C° 0 mm 2 m/S 768 mmHg 77%
    04:00 +7°C° 0 mm 2 m/S 768 mmHg 77%
    05:00 +6°C° 0 mm 2 m/S 768 mmHg 77%
    06:00 +7°C° 0 mm 2 m/S 768 mmHg 74%
    07:00 +7°C° 0 mm 2 m/S 768 mmHg 71%
    08:00 +8°C° 0 mm 2 m/S 769 mmHg 68%
    09:00 +10°C° 0 mm 2 m/S 769 mmHg 58%
    10:00 +14°C° 0 mm 2 m/S 769 mmHg 48%
    11:00 +16°C° 0 mm 2 m/S 768 mmHg 38%
    12:00 +17°C° 0 mm 2 m/S 768 mmHg 36%
    13:00 +18°C° 0 mm 2 m/S 767 mmHg 33%
    14:00 +18°C° 0 mm 2 m/S 767 mmHg 30%
    15:00 +17°C° 0 mm 2 m/S 767 mmHg 36%
    16:00 +15°C° 0 mm 1 m/S 767 mmHg 42%
    17:00 +13°C° 0 mm 1 m/S 767 mmHg 48%
    18:00 +12°C° 0 mm 1 m/S 768 mmHg 51%
    19:00 +11°C° 0 mm 1 m/S 768 mmHg 53%
    20:00 +9°C° 0 mm 2 m/S 769 mmHg 56%
    21:00 +9°C° 0 mm 2 m/S 769 mmHg 56%
    22:00 +9°C° 0 mm 2 m/S 769 mmHg 57%
    23:00 +8°C° 0 mm 2 m/S 769 mmHg 57%

    übermorgen, 18 Dezember, Dienstag

    Zeit Temperatur Niederschläge Wind Luftdruck Luftfeuchtigkeit
    00:00 +8°C° 0 mm 2 m/S 769 mmHg 58%
    01:00 +8°C° 0 mm 2 m/S 769 mmHg 58%
    02:00 +8°C° 0 mm 1 m/S 769 mmHg 59%
    03:00 +8°C° 0 mm 1 m/S 768 mmHg 59%
    04:00 +8°C° 0 mm 1 m/S 768 mmHg 59%
    05:00 +7°C° 0 mm 1 m/S 768 mmHg 59%
    06:00 +8°C° 0 mm 1 m/S 768 mmHg 58%
    07:00 +9°C° 0 mm 1 m/S 769 mmHg 57%
    08:00 +10°C° 0 mm 1 m/S 769 mmHg 56%
    09:00 +12°C° 0 mm 1 m/S 769 mmHg 50%
    10:00 +15°C° 0 mm 1 m/S 769 mmHg 44%
    11:00 +17°C° 0 mm 0 m/S 768 mmHg 38%
    12:00 +19°C° 0 mm 1 m/S 768 mmHg 38%
    13:00 +19°C° 0 mm 1 m/S 767 mmHg 37%
    14:00 +20°C° 0 mm 1 m/S 766 mmHg 37%
    15:00 +18°C° 0 mm 1 m/S 766 mmHg 44%
    16:00 +15°C° 0 mm 1 m/S 766 mmHg 52%
    17:00 +14°C° 0 mm 1 m/S 766 mmHg 59%
    18:00 +13°C° 0 mm 1 m/S 767 mmHg 64%
    19:00 +12°C° 0 mm 1 m/S 767 mmHg 69%
    20:00 +11°C° 0 mm 1 m/S 768 mmHg 74%
    21:00 +11°C° 0 mm 1 m/S 768 mmHg 76%
    22:00 +11°C° 0 mm 1 m/S 768 mmHg 79%
    23:00 +9°C° 0 mm 0 m/S 768 mmHg 81%

    19 Dezember, Mittwoch

    Zeit Temperatur Niederschläge Wind Luftdruck Luftfeuchtigkeit
    00:00 +10°C° 0 mm 1 m/S 767 mmHg 82%
    01:00 +10°C° 0 mm 1 m/S 767 mmHg 83%
    02:00 +10°C° 0 mm 1 m/S 767 mmHg 84%
    03:00 +10°C° 0 mm 1 m/S 767 mmHg 83%
    04:00 +11°C° 0 mm 1 m/S 766 mmHg 81%
    05:00 +11°C° 0 mm 1 m/S 766 mmHg 80%
    06:00 +11°C° 0 mm 1 m/S 766 mmHg 78%
    07:00 +12°C° 0 mm 1 m/S 767 mmHg 76%
    08:00 +12°C° 0 mm 1 m/S 767 mmHg 74%
    09:00 +14°C° 0 mm 1 m/S 767 mmHg 70%
    10:00 +15°C° 0 mm 1 m/S 767 mmHg 66%
    11:00 +16°C° 0 mm 1 m/S 766 mmHg 62%
    12:00 +18°C° 0 mm 1 m/S 765 mmHg 61%
    13:00 +18°C° 0 mm 2 m/S 764 mmHg 60%
    14:00 +19°C° 0 mm 2 m/S 763 mmHg 58%
    15:00 +18°C° 0 mm 2 m/S 763 mmHg 64%
    16:00 +18°C° 0 mm 1 m/S 763 mmHg 71%
    17:00 +16°C° 0 mm 1 m/S 763 mmHg 77%
    18:00 +16°C° 0 mm 1 m/S 763 mmHg 80%
    19:00 +15°C° 0 mm 1 m/S 764 mmHg 83%
    20:00 +15°C° 0 mm 1 m/S 764 mmHg 85%
    21:00 +15°C° 0 mm 1 m/S 764 mmHg 86%
    22:00 +15°C° 0 mm 1 m/S 764 mmHg 86%
    23:00 +15°C° 0 mm 1 m/S 764 mmHg 86%

    20 Dezember, Donnerstag

    Zeit Temperatur Niederschläge Wind Luftdruck Luftfeuchtigkeit
    00:00 +15°C° 0 mm 1 m/S 763 mmHg 87%
    01:00 +15°C° 0 mm 1 m/S 763 mmHg 89%
    02:00 +15°C° 0 mm 1 m/S 762 mmHg 90%
    03:00 +15°C° 0 mm 1 m/S 762 mmHg 91%
    04:00 +15°C° 0 mm 1 m/S 762 mmHg 91%
    05:00 +15°C° 0 mm 1 m/S 762 mmHg 92%
    06:00 +15°C° 0.1 mm 1 m/S 762 mmHg 91%
    07:00 +16°C° 0.1 mm 1 m/S 762 mmHg 91%
    08:00 +16°C° 0.1 mm 1 m/S 762 mmHg 90%
    09:00 +18°C° 0.3 mm 1 m/S 762 mmHg 89%
    10:00 +18°C° 0.3 mm 1 m/S 762 mmHg 88%
    11:00 +17°C° 0.3 mm 0 m/S 762 mmHg 87%
    12:00 +18°C° 0 mm 0 m/S 761 mmHg 81%
    13:00 +19°C° 0 mm 0 m/S 761 mmHg 76%
    14:00 +23°C° 0 mm 1 m/S 760 mmHg 71%
    15:00 +22°C° 0 mm 1 m/S 760 mmHg 76%
    16:00 +21°C° 0 mm 1 m/S 760 mmHg 81%
    17:00 +20°C° 0 mm 1 m/S 760 mmHg 85%
    18:00 +19°C° 0 mm 1 m/S 761 mmHg 87%
    19:00 +19°C° 0 mm 1 m/S 761 mmHg 89%
    20:00 +19°C° 0 mm 1 m/S 761 mmHg 91%
    21:00 +19°C° 0 mm 1 m/S 761 mmHg 92%
    22:00 +18°C° 0 mm 1 m/S 761 mmHg 93%
    23:00 +18°C° 0 mm 1 m/S 761 mmHg 94%

    21 Dezember, Freitag

    Zeit Temperatur Niederschläge Wind Luftdruck Luftfeuchtigkeit
    00:00 +18°C° 0 mm 1 m/S 761 mmHg 95%
    01:00 +18°C° 0 mm 1 m/S 761 mmHg 95%
    02:00 +18°C° 0 mm 1 m/S 761 mmHg 95%
    03:00 +16°C° 0 mm 1 m/S 761 mmHg 96%
    04:00 +16°C° 0 mm 1 m/S 761 mmHg 96%
    05:00 +16°C° 0 mm 1 m/S 761 mmHg 96%
    06:00 +18°C° 0 mm 1 m/S 762 mmHg 94%
    07:00 +18°C° 0 mm 1 m/S 762 mmHg 93%
    08:00 +18°C° 0 mm 1 m/S 763 mmHg 91%
    09:00 +20°C° 0 mm 1 m/S 763 mmHg 85%
    10:00 +22°C° 0 mm 1 m/S 763 mmHg 80%
    11:00 +23°C° 0 mm 1 m/S 763 mmHg 74%
    12:00 +23°C° 0 mm 2 m/S 762 mmHg 76%
    13:00 +23°C° 0 mm 2 m/S 762 mmHg 78%
    14:00 +21°C° 0 mm 2 m/S 762 mmHg 80%
    15:00 +21°C° 0 mm 2 m/S 762 mmHg 83%
    16:00 +20°C° 0 mm 3 m/S 762 mmHg 87%
    17:00 +20°C° 0 mm 3 m/S 762 mmHg 90%
    18:00 +19°C° 0.1 mm 3 m/S 763 mmHg 91%
    19:00 +19°C° 0.1 mm 3 m/S 763 mmHg 93%
    20:00 +19°C° 0.1 mm 3 m/S 764 mmHg 94%
    21:00 +18°C° 0.1 mm 3 m/S 764 mmHg 94%
    22:00 +18°C° 0.1 mm 3 m/S 764 mmHg 94%
    23:00 +18°C° 0.1 mm 3 m/S 764 mmHg 94%
    Mehr zeigen